(81146) = 2000 EW142

Discovered at Catalina on 2000-03-03 by CSS.

Orbit

Orbit type: Main Belt

Note: WebGL enabled browser required.

epoch2023-09-13.0
epoch JD2460200.5
perihelion date2022-07-23.33531
perihelion JD2459783.83531
argument of perihelion (°)335.71152
ascending node (°)269.23242
inclination (°)11.02197
eccentricity0.1585955
perihelion distance (AU)2.2284048
Tisserand w.r.t. Jupiter3.3
ΔV w.r.t. Earth (km/sec)10.0
semimajor axis (AU)2.6484345
mean anomaly (°)95.28108
mean daily motion (°/day)0.22867570
aphelion distance (AU)3.068
period (years)4.31
P-vector [x]-0.41591796
P-vector [y]-0.79995328
P-vector [z]-0.43253555
Q-vector [x]0.88908210
Q-vector [y]-0.45766908
Q-vector [z]-0.00848793
absolute magnitude15.52
phase slope0.15
uncertainty0
referenceMPEC 2024-A55
observations used808
oppositions18
arc length (days)8679
first opposition used2000
last opposition used2023
residual rms (arc-secs)0.67
perturbers coarse indicatorM-v
perturbers precise indicator003Ek
first observation date used2000-02-08.0
last observation date used2023-11-13.0
computer nameMPCLINUX
JD of orbit computation2456966.699909
perihelion JD uncertainty (days)1.2661E-04
argument of perihelion uncertainty (°)4.9910E-05
ascending node uncertainty (°)4.1353E-05
inclination uncertainty (°)7.6358E-06
eccentricity uncertainty 6.1825E-08
perihelion distance uncertainty (AU)1.5897E-07
Minimum Orbit Intersection Distances (in AU)
for orbit epoch: 2460200.5, reference: E2024-A55
Mercury1.76353
Venus1.50646
Earth1.21847
Mars0.72074
Jupiter1.99987
Saturn6.01508
Uranus15.8231
Neptune26.8511

Observations

837 total observations over interval: 2000 02 08.32513 – 2023 11 13.368970
These data are available for download (format description).

Date (UT) J2000 RA J2000 Dec Magn Location Ref
2000 02 08.32513 10 22 30.97 -06 14 35.3 19.1   704 – Lincoln Laboratory ETS, New Mexico MPS 35614
2000 02 08.34202 10 22 30.13 -06 14 35.7 19.3   704 – Lincoln Laboratory ETS, New Mexico MPS 35614
2000 02 08.35893 10 22 29.26 -06 14 36.2 19.9   704 – Lincoln Laboratory ETS, New Mexico MPS 35614
2000 02 08.39278 10 22 27.59 -06 14 35.7 19.5   704 – Lincoln Laboratory ETS, New Mexico MPS 35614
2000 03 03.23572 10 00 39.45 -05 24 49.3 18.7 R 703 – Catalina Sky Survey MPS 12489
2000 03 03.25134 10 00 38.49 -05 24 45.6 18.6 R 703 – Catalina Sky Survey MPS 12489
2000 03 03.26697 10 00 37.68 -05 24 42.0 18.7 R 703 – Catalina Sky Survey MPS 12489
2000 03 03.28262 10 00 36.80 -05 24 37.9 18.5 R 703 – Catalina Sky Survey MPS 12489
2000 03 09.23767 09 55 28.01 -04 57 49.9 18.8   704 – Lincoln Laboratory ETS, New Mexico MPS 12489
2000 03 09.26590 09 55 26.54 -04 57 42.4 19.5   704 – Lincoln Laboratory ETS, New Mexico MPS 12489
2000 03 09.27892 09 55 25.79 -04 57 38.7 19.0   704 – Lincoln Laboratory ETS, New Mexico MPS 12489
2000 03 09.29241 09 55 25.16 -04 57 35.9 19.4   704 – Lincoln Laboratory ETS, New Mexico MPS 12489
2001 07 28.35480 20 33 55.22 -06 40 41.9 20.1   608 – Haleakala-AMOS MPS 35614
2001 07 28.36536 20 33 54.56 -06 40 42.5 20.7   608 – Haleakala-AMOS MPS 35614
2001 07 28.37618 20 33 53.91 -06 40 41.1 20.1   608 – Haleakala-AMOS MPS 35614
2001 08 07.30664 20 24 36.01 -06 40 30.1 19.4   608 – Haleakala-AMOS MPS 43139
2001 08 07.31718 20 24 35.42 -06 40 30.4 19.1   608 – Haleakala-AMOS MPS 43139
2001 08 07.32770 20 24 34.83 -06 40 30.4 19.0   608 – Haleakala-AMOS MPS 43139
2001 08 07.49079 20 24 25.71 -06 40 35.5 20.2   608 – Haleakala-AMOS MPS 43139
2001 08 07.50101 20 24 25.10 -06 40 36.6 20.3   608 – Haleakala-AMOS MPS 43139
2001 08 07.51122 20 24 24.59 -06 40 36.0 20.4   608 – Haleakala-AMOS MPS 43139
2001 08 25.20438 20 11 25.44 -07 02 32.0 18.9   704 – Lincoln Laboratory ETS, New Mexico MPS 35614
2001 08 25.21742 20 11 25.10 -07 02 33.2 19.3   704 – Lincoln Laboratory ETS, New Mexico MPS 35614
2001 08 25.23061 20 11 24.61 -07 02 35.2 18.9   704 – Lincoln Laboratory ETS, New Mexico MPS 35614
2001 08 25.24357 20 11 24.17 -07 02 35.8 19.8   704 – Lincoln Laboratory ETS, New Mexico MPS 35614
2001 08 25.25653 20 11 23.79 -07 02 37.5 19.6   704 – Lincoln Laboratory ETS, New Mexico MPS 35614
2002 11 06.26531 02 46 59.49 +27 52 34.6 19.0 R 699 – Lowell Observatory-LONEOS MPS 65610
2002 11 06.28366 02 46 58.31 +27 52 30.1   699 – Lowell Observatory-LONEOS MPS 65610
2002 11 06.30205 02 46 57.31 +27 52 22.6   699 – Lowell Observatory-LONEOS MPS 65610
2002 11 06.32033 02 46 56.28 +27 52 15.3   699 – Lowell Observatory-LONEOS MPS 65610
2002 11 24.09197 02 31 06.18 +25 50 32.5 20.2   644 – Palomar Mountain/NEAT MPS 67648
2002 11 24.11286 02 31 05.17 +25 50 24.0 20.3   644 – Palomar Mountain/NEAT MPS 67648
2002 11 24.13385 02 31 04.17 +25 50 14.4 20.9   644 – Palomar Mountain/NEAT MPS 67648
2004 01 16.29918 08 24 13.48 +09 55 56.4 19.3   644 – Palomar Mountain/NEAT MPS 96911
2004 01 16.36677 08 24 09.46 +09 55 54.5 19.4   644 – Palomar Mountain/NEAT MPS 96911
2004 01 16.43184 08 24 05.59 +09 55 52.8 19.9   644 – Palomar Mountain/NEAT MPS 96911
2004 01 17.48489 08 23 04.22 +09 55 27.8 20.0   608 – Haleakala-AMOS MPS 96911
2004 01 17.49536 08 23 03.58 +09 55 27.9 19.7   608 – Haleakala-AMOS MPS 96911
2004 01 17.50591 08 23 02.96 +09 55 27.2 19.9   608 – Haleakala-AMOS MPS 96911
2004 01 23.33929 08 17 15.03 +09 54 50.3 19.2   704 – Lincoln Laboratory ETS, New Mexico MPS 97651
2004 01 23.35224 08 17 14.17 +09 54 51.9 19.2   704 – Lincoln Laboratory ETS, New Mexico MPS 97651
2004 01 23.36507 08 17 13.40 +09 54 50.7 19.4   704 – Lincoln Laboratory ETS, New Mexico MPS 97651
2004 02 17.21738 07 54 29.50 +10 17 26.8 19.6   704 – Lincoln Laboratory ETS, New Mexico MPS 98640
2004 02 17.25258 07 54 27.93 +10 17 30.3 19.6   704 – Lincoln Laboratory ETS, New Mexico MPS 98640
2004 02 17.26436 07 54 27.35 +10 17 30.4 19.5   704 – Lincoln Laboratory ETS, New Mexico MPS 98640
2006 09 17.42050 01 19 26.18 +24 47 07.6 20.1 V 703 – Catalina Sky Survey MPS 180459
2006 09 17.43231 01 19 25.68 +24 47 04.9 19.4 V 703 – Catalina Sky Survey MPS 180459
2006 09 17.44414 01 19 25.24 +24 47 04.3 19.8 V 703 – Catalina Sky Survey MPS 180459
2006 09 17.45603 01 19 24.81 +24 47 03.8 19.9 V 703 – Catalina Sky Survey MPS 180459
2006 10 19.22267 00 52 53.79 +22 17 05.3 19.2 V 703 – Catalina Sky Survey MPS 183684
2006 10 19.23179 00 52 53.29 +22 17 01.6 19.4 V 703 – Catalina Sky Survey MPS 183684
2006 10 19.24093 00 52 52.82 +22 16 58.2 20.6 V 703 – Catalina Sky Survey MPS 183684
2006 10 19.25010 00 52 52.46 +22 16 54.0 20.0 V 703 – Catalina Sky Survey MPS 183684
2006 10 22.30877 00 50 21.62 +21 53 57.3 19.3 R 644 – Palomar Mountain/NEAT MPS 185005
2006 10 22.32949 00 50 20.60 +21 53 48.0 19.3 R 644 – Palomar Mountain/NEAT MPS 185005
2006 10 22.35014 00 50 19.56 +21 53 38.2 19.4 R 644 – Palomar Mountain/NEAT MPS 185005
2006 10 23.27721 00 49 35.39 +21 46 31.1 19.3 R 644 – Palomar Mountain/NEAT MPS 185005
2006 10 23.29838 00 49 34.36 +21 46 21.0 19.9 R 644 – Palomar Mountain/NEAT MPS 185005
2006 10 23.32071 00 49 33.27 +21 46 10.7 19.8 R 644 – Palomar Mountain/NEAT MPS 185005
2006 10 27.28549 00 46 32.41 +21 15 07.5 19.3 V 703 – Catalina Sky Survey MPS 185005
2006 10 27.29275 00 46 32.08 +21 15 05.5 19.5 V 703 – Catalina Sky Survey MPS 185005
2006 10 27.29998 00 46 31.76 +21 14 59.9 19.7 V 703 – Catalina Sky Survey MPS 185005
2006 10 27.30719 00 46 31.51 +21 14 57.0 19.6 V 703 – Catalina Sky Survey MPS 185005
2007 11 17.40940 07 05 05.31 +22 24 06.5 20.2 V G96 – Mt. Lemmon Survey MPS 228755
2007 11 17.41513 07 05 05.20 +22 24 05.5 20.1 V G96 – Mt. Lemmon Survey MPS 228755
2007 11 17.42089 07 05 05.10 +22 24 04.5 20.4 V G96 – Mt. Lemmon Survey MPS 228755
2007 11 17.42668 07 05 04.99 +22 24 03.7 20.2 V G96 – Mt. Lemmon Survey MPS 228755
2007 12 03.37572 06 57 22.56 +21 48 55.7 20.6 V 691 – Steward Observatory, Kitt Peak-Spacewatch MPS 230604
2007 12 03.39082 06 57 21.90 +21 48 54.1 20.3 V 691 – Steward Observatory, Kitt Peak-Spacewatch MPS 230604
2007 12 03.40591 06 57 21.33 +21 48 52.5 19.9 V 691 – Steward Observatory, Kitt Peak-Spacewatch MPS 230604
2007 12 20.35560 06 42 52.20 +21 12 40.6 20.5 V 691 – Steward Observatory, Kitt Peak-Spacewatch MPS 232345
2007 12 20.37672 06 42 50.95 +21 12 37.8 19.5 V 691 – Steward Observatory, Kitt Peak-Spacewatch MPS 232345
2007 12 20.39439 06 42 49.88 +21 12 35.2 19.3 V 691 – Steward Observatory, Kitt Peak-Spacewatch MPS 232345
2009 03 31.30807 13 30 20.32 -27 59 07.2 18.0   704 – Lincoln Laboratory ETS, New Mexico MPS 283255
2009 03 31.32057 13 30 19.70 -27 59 06.3 18.0   704 – Lincoln Laboratory ETS, New Mexico MPS 283255
2009 03 31.33295 13 30 19.12 -27 59 03.7 18.2   704 – Lincoln Laboratory ETS, New Mexico MPS 283255
2009 03 31.34595 13 30 18.49 -27 59 02.4 18.3   704 – Lincoln Laboratory ETS, New Mexico MPS 283255
2009 03 31.35869 13 30 17.87 -27 59 00.0 18.4   704 – Lincoln Laboratory ETS, New Mexico MPS 283255
2009 04 15.62818 13 17 34.87 -26 45 58.6 18.6 V E12 – Siding Spring Survey MPS 284076
2009 04 15.63844 13 17 34.26 -26 45 53.7 18.4 V E12 – Siding Spring Survey MPS 284076
2009 04 15.64870 13 17 33.79 -26 45 50.7 18.7 V E12 – Siding Spring Survey MPS 284076
2009 04 15.65883 13 17 33.21 -26 45 46.1 18.8 V E12 – Siding Spring Survey MPS 284076
2009 04 29.55249 13 06 27.93 -24 51 19.5 18.1 V E12 – Siding Spring Survey MPS 286165
2009 04 29.56552 13 06 27.36 -24 51 12.0 18.1 V E12 – Siding Spring Survey MPS 286165
2009 04 29.57857 13 06 26.78 -24 51 04.8 18.1 V E12 – Siding Spring Survey MPS 286165
2009 04 29.59166 13 06 26.20 -24 50 57.5 18.2 V E12 – Siding Spring Survey MPS 286165
2009 05 12.56845 12 59 29.18 -22 46 36.3 18.3 V E12 – Siding Spring Survey MPS 286708
2009 05 12.57936 12 59 28.86 -22 46 29.6 18.4 V E12 – Siding Spring Survey MPS 286708
2009 05 12.59012 12 59 28.64 -22 46 23.7 17.8 V E12 – Siding Spring Survey MPS 286708
2010 06 16.258179 23 25 16.21 +07 46 27.8   C51 – WISE MPS 334248
2010 06 16.390483 23 25 21.85 +07 47 46.2   C51 – WISE MPS 334248
2010 06 16.522787 23 25 27.502 +07 49 04.48   C51 – WISE MPS 902549
